Regional Weather Roundup
Issued by NWS Raleigh/Durham, NC

Home | Current Version | Previous Version | Text Only | Print | Product List | Glossary On
Versions: 1 2 3 4 5 6 7 8 9 10 11 12 13 14 15 16 17 18 19 20 21 22 23 24 25 26 27 28 29 30 31 32 33 34 35 36 37 38 39 40 41 42 43 44 45 46 47 48 49 50
000
ASUS42 KRAH 020210
RWRRAH
NORTH CAROLINA WEATHER ROUNDUP
NATIONAL WEATHER SERVICE RALEIGH NC
1000 PM EDT MON SEP 01 2014

NOTE: "FAIR" INDICATES FEW OR NO CLOUDS BELOW 12,000 FEET WITH NO
SIGNIFICANT WEATHER AND/OR OBSTRUCTIONS TO VISIBILITY.

NCZ001-053-055-056-065-067-020300-
WESTERN NORTH CAROLINA

CITY           SKY/WX    TMP DP  RH WIND       PRES   REMARKS
ASHEVILLE      PTCLDY    73  69  87 CALM      30.18R
JEFFERSON      PTCLDY    73  60  65 SW3       30.23R
HICKORY        CLEAR     76  68  76 CALM      30.11R
RUTHERFORDTON  PTCLDY    74  71  91 CALM      30.12R
MOUNT AIRY     PTCLDY    75  71  86 CALM      30.11F
BOONE          CLEAR     68  63  82 CALM      30.23S
$$

NCZ021-022-025-041-071-084-088-020300-
CENTRAL NORTH CAROLINA

CITY           SKY/WX    TMP DP  RH WIND       PRES   REMARKS
CHARLOTTE      PTCLDY    80  67  64 SW5       30.10R
GREENSBORO     PTCLDY    81  66  60 CALM      30.08R
WINSTON-SALEM  PTCLDY    79  67  66 CALM      30.09S
RALEIGH-DURHAM PTCLDY    77  71  82 CALM      30.06R
FORT BRAGG       N/A     85  76  74 S7        30.06R
FAYETTEVILLE   PTCLDY    83  76  79 S8        30.06R
BURLINGTON     CLEAR     77  65  66 CALM      30.06S
LAURINBURG     MOCLDY    83  73  72 SW8       30.08R
$$

NCZ011-015-027-028-043-044-047-080-103-020300-
NORTHEASTERN NORTH CAROLINA

CITY           SKY/WX    TMP DP  RH WIND       PRES   REMARKS
ROCKY MT-WILSO PTCLDY    76  73  91 S5        30.05R
GREENVILLE     PTCLDY    81  77  89 SW12      30.07R
WASHINGTON     PTCLDY    80  75  85 S6        30.06S
ELIZABETH CITY MOCLDY    82  76  81 S12       30.03R
MANTEO         PTCLDY    81  76  85 SW14      30.04F
CAPE HATTERAS  PTCLDY    80  77  90 SW13G21   30.07S
$$

NCZ078-087-090-091-093-098-101-020300-
SOUTHEASTERN NORTH CAROLINA

CITY           SKY/WX    TMP DP  RH WIND       PRES   REMARKS
LUMBERTON      MOCLDY    81  76  84 S3        30.07R
GOLDSBORO      PTCLDY    81  79  94 S5        30.05R
KINSTON        PTCLDY    81  75  83 S7        30.07R
KENANSVILLE    PTCLDY    78  73  82 CALM      30.08S
NEW BERN       PTCLDY    81  76  84 S7        30.08R
CHERRY POINT   MOCLDY    80  75  84 S5        30.09R
BEAUFORT       PTCLDY    82  77  84 SW12      30.08R
JACKSONVILLE   PTCLDY    79  75  87 S5        30.07R
WILMINGTON     PTCLDY    80  75  84 S6        30.08R
$$




USA.gov is the U.S. government's official web portal to all federal, state and local government web resources and services.